Presure
218 219 200 224 215 222 215 224 203 220 216 210 233 207 229 240 242 241 166 129 168 224 255 221 241 252 260 256 262 250 275 254 268 273 267 253 180 196 253 250 218 214 147 272
208 196 194 199 201 204 206 204 205 204 211 214 130 133 215 200 228 233 235 234 242 239 247 247 249 244 250 275 269 255 248 176 280 243 283 252 276 267 263 255 184 192 246 241
197 187 202 187 190 194 189 202 161 194 200 201 200 202 207 216 211 217 227 222 222 237 225 230 231 219 247 245 251 253 286 282 276 251 177 211 301 290 261 263 267 264 261 253
192 185 193 176 214 198 218 181 168 193 207 208 204 203 212 162 155 135 192 195 221 224 237 232 223 234 232 259 196 198 201 256 263 250 228 245 221 257 263 296 295 277 263 259
200 204 223 179 187 199 212 143 194 130 134 178 133 160 186 195 195 212 201 146 147 183 211 229 223 221 161 154 190 241 258 222 252 293 246 238 141 154 244 203 157 267 274 267
179 143 165 213 204 188 186 193 199 204 190 205 198 196 199 210 198 217 199 200 221 209 199 199 228 231 240 229 229 239 234 228 252 246 162 259 265 246 262 291 293 256 251 243
172 186 197 191 211 175 175 188 187 191 208 170 187 186 188 209 184 192 196 193 201 182 219 229 222 220 233 231 245 241 208 221 282 226 252 299 236 298 286 279 356 353 339 338
199 190 188 196 198 198 193 192 196 186 186 201 200 207 205 202 200 197 201 191 217 208 198 197 190 231 221 220 236 258 237 269 262 252 253 263 257 261 283 473 444 426 422 427
192 179 192 180 173 183 194 196 181 194 177 182 193 187 179 179 182 200 204 204 202 189 215 228 192 221 239 237 217 249 225 266 258 247 251 258 255 261 351 409 436 424 422 416
195 171 178 172 171 173 177 178 190 184 183 173 198 195 200 203 201 201 183 188 199 202 212 210 221 225 225 236 228 239 253 258 258 253 245 251 264 267 291 375 360 358 363 367
172 187 180 192 191 180 174 176 190 187 178 169 167 180 204 192 200 185 211 200 204 207 212 209 227 201 227 162 237 239 239 256 260 247 239 252 279 256 293 332 341 331 329 326
183 188 184 188 188 193 188 190 177 193 167 191 171 188 196 196 198 204 201 206 184 209 217 200 220 230 226 242 232 243 240 250 266 239 248 251 263 256 291 314 335 325 313 305
195 195 182 196 191 181 184 173 195 189 190 192 199 184 187 200 197 212 208 194 196 194 198 225 220 220 237 235 236 244 232 249 249 257 249 256 254 254 287 331 298 325 316 301
179 198 196 189 187 190 196 191 192 195 185 195 175 186 199 202 202 207 203 197 201 188 218 193 236 226 215 218 237 241 238 251 255 260 203 258 249 283 285 301 300 354 314 293
199 199 199 196 195 203 210 208 206 204 220 217 213 211 207 212 202 201 215 176 184 236 226 233 225 231 214 242 239 225 233 253 243 258 256 256 251 287 282 295 305 291 332 307
199 210 219 215 209 205 190 191 193 224 206 158 237 240 169 184 179 206 223 235 233 244 223 231 240 216 226 239 244 233 226 251 252 256 255 251 265 285 282 283 304 284 330 309
210 207 209 208 213 225 214 211 225 233 228 228 233 205 244 230 243 222 229 239 248 240 226 240 242 232 229 243 249 235 227 251 214 257 256 252 258 284 283 281 305 279 323 308
193 130 192 182 202 208 238 227 239 133 241 212 238 242 241 233 241 232 237 242 248 240 246 205 212 243 242 219 260 257 230 253 245 258 260 250 257 284 277 284 307 276 325 308
191 186 238 153 172 244 178 180 132 200 178 241 197 201 183 247 257 248 234 271 253 209 223 235 240 253 214 248 269 240 255 263 238 256 260 256 272 282 264 281 298 278 320 305
220 246 171 202 224 210 212 254 274 240 231 210 167 257 297 145 249 245 219 252 255 243 174 176 247 260 170 236 259 238 252 268 228 251 260 254 285 276 263 281 293 354 318 295
232 178 245 244 265 258 189 240 249 261 185 262 271 167 282 246 247 283 273 269 241 251 267 228 258 185 259 246 251 242 254 262 229 252 277 258 285 273 263 278 290 357 313 291
253 259 252 253 317 236 215 299 351 133 248 256 298 269 168 283 291 274 240 255 241 256 239 250 246 246 252 258 256 237 253 270 255 259 248 257 285 284 266 276 283 353 309 283
388 388 379 365 199 125 143 227 215 237 273 293 294 311 315 243 292 285 250 264 215 284 242 243 236 195 259 258 271 266 270 276 227 269 244 261 283 283 275 276 275 348 299 279
271 138 261 127 134 392 364 173 289 171 366 352 360 124 171 286 284 280 266 286 285 210 242 235 281 264 268 261 274 284 269 257 268 250 265 271 280 259 278 276 275 337 293 278
169 364 213 363 352 394 383 372 372 267 369 375 312 253 290 338 283 228 303 310 284 201 247 249 276 276 185 273 288 277 279 260 266 238 259 280 273 261 276 274 293 323 287 275
346 336 303 349 379 374 282 265 183 382 373 367 239 293 253 326 322 240 309 299 252 249 298 281 281 266 268 291 288 278 264 274 249 253 258 270 262 274 270 276 371 311 280 270
331 320 320 360 166 379 127 220 235 209 371 225 167 206 336 165 280 311 211 253 248 300 291 279 272 285 296 287 277 274 280 264 246 268 243 252 263 279 266 280 359 294 277 265
Wind_Speed
45 46 32 49 44 52 45 52 34 47 41 37 50 35 47 50 45 41 29 38 32 32 37 35 39 40 39 38 38 39 41 40 40 40 39 39 51 48 38 38 40 39 47 35
40 28 25 30 30 29 33 28 31 29 44 44 33 36 46 29 55 52 52 49 46 43 41 40 40 41 42 38 37 38 38 34 42 39 48 41 44 43 43 45 58 54 47 46
24 22 24 21 24 23 21 24 24 24 26 28 28 31 37 49 42 52 58 53 53 50 51 48 44 41 45 46 45 44 38 38 38 41 47 44 52 54 48 50 53 54 54 55
23 17 23 16 33 27 41 19 24 22 33 31 28 29 40 30 30 40 35 37 55 58 52 50 50 50 50 44 45 44 45 47 44 47 44 47 48 46 47 57 64 64 60 61
27 18 46 19 20 27 38 30 31 36 40 28 40 33 31 34 35 48 41 43 42 40 55 56 53 51 51 43 47 48 46 48 48 45 53 54 48 48 55 51 50 59 69 71
16 19 20 46 31 27 25 18 26 36 29 32 28 36 30 39 34 51 36 39 56 46 46 45 57 55 55 52 50 48 49 49 49 50 60 51 52 57 57 59 62 64 63 64
27 26 27 14 42 28 28 29 34 36 49 34 35 37 37 44 37 43 43 43 43 45 61 66 59 57 58 57 57 54 46 51 54 53 53 61 58 63 61 62 72 70 67 71
37 31 38 34 45 38 29 32 36 28 38 50 47 59 55 53 54 46 49 44 68 54 49 52 50 62 59 58 59 61 57 61 57 55 56 58 57 60 66 58 58 61 63 61
33 22 40 30 36 31 49 52 37 48 39 40 51 48 42 44 47 55 60 58 59 50 66 74 54 62 66 64 61 64 61 65 61 60 61 63 61 64 78 50 43 42 42 42
53 34 38 40 40 42 41 45 54 46 42 44 60 57 62 64 63 62 49 51 57 58 65 63 69 71 67 67 65 65 67 67 65 64 66 66 68 68 72 53 48 44 40 40
40 45 50 53 56 50 42 49 61 53 52 50 47 52 73 62 61 51 73 59 66 64 69 64 77 58 71 56 68 67 68 70 69 68 69 70 74 69 77 68 48 42 38 37
61 61 60 62 64 68 60 64 52 68 49 67 49 63 71 67 67 71 64 71 56 72 80 61 76 77 74 75 69 69 70 69 74 69 70 73 77 73 77 74 56 46 41 41
70 71 61 72 73 61 67 55 81 67 71 76 80 60 70 81 71 87 77 60 64 66 63 83 77 75 78 75 72 71 71 71 71 72 71 74 75 75 79 73 70 53 45 46
62 75 72 65 67 73 78 76 80 84 66 80 62 71 83 86 84 86 78 68 75 60 84 61 78 76 70 69 74 71 72 73 73 74 63 74 75 75 76 74 72 53 50 51
80 81 79 78 75 86 86 86 87 87 88 90 90 89 86 91 82 77 90 55 59 83 83 80 67 75 70 77 75 71 72 75 72 75 72 74 75 77 76 76 71 71 51 51
91 96 96 95 95 90 76 77 78 88 88 50 92 87 56 72 63 81 88 86 83 78 80 80 75 75 74 75 75 71 72 74 74 75 72 73 78 77 77 79 73 71 51 52
100 98 99 92 93 97 92 90 91 90 85 81 84 72 89 83 86 85 87 79 80 80 78 75 73 73 74 75 75 71 73 74 67 75 73 74 76 78 78 78 75 72 52 49
79 35 71 70 90 95 104 96 101 36 101 79 96 98 90 84 85 80 84 82 77 77 75 64 65 70 70 64 75 73 72 74 73 73 75 72 76 77 77 79 77 72 51 50
80 76 108 52 61 104 66 64 37 74 55 97 64 63 59 90 91 84 78 78 75 57 61 74 71 70 64 70 76 71 71 74 70 72 75 73 78 75 76 79 75 73 50 50
100 101 63 89 97 83 83 105 114 89 85 74 55 100 84 40 83 79 82 76 72 71 52 46 70 71 43 69 74 69 70 73 70 69 73 72 78 75 75 77 75 50 50 50
100 67 110 107 118 108 83 90 97 105 63 96 97 46 84 76 80 77 75 73 70 71 74 73 66 54 69 70 70 68 68 70 69 69 75 71 75 74 75 76 75 47 49 50
117 114 111 113 102 85 91 90 82 40 69 65 77 69 36 78 77 74 72 69 69 67 70 65 65 67 68 70 70 68 67 70 67 69 66 71 73 73 73 75 74 45 47 50
79 77 76 80 47 34 32 70 45 62 80 76 77 75 74 58 76 74 71 69 57 68 65 60 66 58 68 68 71 68 66 67 62 69 64 70 70 71 71 73 73 42 45 50
97 40 85 40 42 68 68 50 68 33 66 64 64 30 36 71 74 73 68 69 68 56 62 58 66 65 67 66 68 65 64 62 67 61 66 67 67 69 70 72 73 40 42 47
49 64 49 63 55 62 63 64 62 53 62 57 64 66 65 54 65 61 67 64 62 44 61 60 61 63 48 66 63 62 62 61 64 59 63 64 65 68 70 71 70 39 40 45
64 65 68 59 56 56 47 41 42 57 55 52 47 45 39 50 50 58 58 57 57 56 60 56 59 60 61 59 56 58 57 61 56 60 62 62 64 67 68 70 32 34 37 44
63 63 62 55 45 53 29 41 47 40 48 38 43 43 45 50 50 52 43 51 52 57 55 55 57 56 53 53 55 56 58 57 55 60 60 62 63 67 66 71 28 31 35 42
Wind_Direction
62 64 60 62 59 59 55 53 40 42 30 17 36 17 24 24 21 17 310 282 306 345 354 332 345 344 340 336 331 327 317 328 316 309 308 303 276 281 300 295 279 280 280 284
60 39 43 36 33 39 52 46 48 41 46 41 282 283 27 350 21 18 13 8 6 0 0 355 349 345 343 335 332 330 329 295 310 321 300 314 297 295 293 292 273 269 284 277
45 30 50 26 20 19 9 23 298 2 11 10 6 10 14 22 12 17 15 5 359 0 353 351 346 334 343 340 337 335 327 322 319 319 297 295 291 287 294 291 285 283 281 280
31 10 18 342 35 24 28 356 309 1 20 14 7 2 19 319 315 298 335 334 8 2 1 352 345 345 342 343 320 317 315 326 322 319 305 314 294 306 299 286 277 278 281 279
40 48 17 343 357 24 18 296 11 291 289 326 292 309 332 338 337 0 352 304 305 319 352 354 343 339 305 302 292 330 329 319 320 329 314 312 279 279 304 291 278 289 274 270
348 307 311 8 7 348 336 351 5 1 336 354 339 344 334 350 334 357 338 340 354 344 331 327 348 343 346 334 331 329 323 319 320 314 294 310 308 305 302 300 294 292 290 275
326 336 349 323 355 324 327 329 334 332 350 299 325 329 322 346 318 330 332 325 334 311 344 349 342 336 340 333 338 331 316 318 330 313 314 328 304 320 312 302 301 291 282 276
343 334 337 344 344 348 334 333 340 322 329 344 342 344 342 337 335 327 335 324 342 334 325 325 318 338 328 328 330 338 328 336 328 322 321 320 318 318 317 305 300 294 293 292
326 301 329 301 311 311 333 333 312 331 312 310 330 325 310 313 316 330 334 332 331 321 336 338 316 333 336 333 325 336 325 336 328 324 324 325 323 322 334 339 333 322 312 305
325 298 302 309 303 310 314 309 322 315 307 309 329 325 329 329 328 327 317 316 323 326 330 328 332 331 331 332 326 331 334 333 331 328 325 325 327 326 330 334 335 335 338 332
295 314 311 316 317 310 296 309 318 310 304 302 304 305 326 319 322 315 326 320 326 325 327 325 330 320 328 309 330 329 327 333 332 327 324 326 330 328 334 336 331 334 338 337
308 311 314 314 314 314 311 314 303 312 300 312 302 313 320 317 316 319 319 321 314 323 325 318 325 327 326 328 326 328 326 331 334 325 327 327 330 329 334 338 329 324 321 319
298 300 307 304 305 308 308 292 308 307 309 310 310 302 311 313 311 316 316 308 314 317 316 321 320 321 326 326 325 328 324 328 329 330 328 330 329 329 334 336 334 319 315 315
298 300 299 301 301 302 300 301 302 302 298 303 292 303 308 308 310 311 312 306 312 312 316 316 318 317 319 322 323 326 325 327 330 331 322 330 327 331 333 334 334 314 313 313
297 298 296 298 300 299 298 298 300 302 300 299 300 300 302 304 307 306 307 307 313 312 313 315 316 315 316 321 321 320 322 327 326 331 330 329 328 332 333 334 334 333 309 307
296 295 293 293 294 295 299 302 302 299 301 299 308 303 305 302 306 304 303 306 307 310 310 312 314 313 315 319 320 319 320 325 325 329 329 327 331 331 332 334 335 333 316 310
292 292 293 298 304 300 298 298 297 299 300 301 302 305 304 299 304 301 303 305 305 307 307 309 311 310 313 317 318 318 318 322 321 328 329 327 330 331 332 333 335 333 319 318
294 291 308 305 303 300 295 295 297 292 302 304 302 303 300 300 301 301 300 301 300 304 305 304 308 313 314 313 318 318 317 321 322 327 329 327 329 330 331 333 335 333 319 317
300 291 289 284 295 291 295 296 301 298 301 298 301 295 295 297 298 296 296 296 298 307 299 303 308 311 312 313 318 315 317 320 320 325 328 327 328 330 328 333 335 334 322 321
288 288 289 290 290 289 293 295 294 291 290 291 299 295 287 299 293 291 291 294 295 299 308 310 307 309 318 309 315 312 315 320 318 322 327 327 327 329 327 334 335 324 322 323
289 288 292 292 289 289 284 291 290 290 290 291 289 285 287 286 289 286 286 290 292 296 292 300 305 313 308 307 311 312 314 318 317 321 325 327 326 328 327 333 335 323 322 324
288 288 287 288 286 287 287 286 277 288 285 278 281 286 297 283 281 281 285 288 291 290 292 300 302 302 303 307 310 310 311 316 317 321 323 326 326 329 328 333 335 322 322 324
286 285 283 283 281 299 293 285 290 290 285 280 280 276 274 280 277 279 284 286 297 288 292 297 297 302 301 304 310 311 313 314 317 321 321 324 325 330 330 332 333 321 322 324
287 293 286 299 288 279 276 279 276 280 275 277 274 297 274 277 276 277 281 281 283 296 290 295 292 297 300 303 308 310 310 311 317 318 323 323 325 325 330 331 332 319 320 324
286 288 280 286 283 281 279 277 276 282 273 272 274 275 277 274 275 283 277 277 281 287 291 293 293 295 312 304 305 307 310 312 315 315 322 321 325 325 329 330 331 317 318 324
288 287 284 288 284 280 283 269 272 271 273 274 272 282 282 272 271 282 273 276 285 287 289 292 292 295 300 300 303 306 308 312 313 315 320 320 322 327 327 330 311 313 317 323
286 287 288 288 295 282 304 262 287 298 271 263 292 271 271 290 274 272 295 284 284 284 287 288 291 296 296 299 303 306 310 312 313 318 315 318 322 326 325 329 305 309 316 324